www.pogodaiklimat.ru

Погода и климат >> Архив погоды >> Россия >> Ульяновская область >> Ульяновск


АРХИВ ПОГОДЫ в Ульяновске

Время (UTC), дата Ветер
(напр.,м/с)
 
Видим.   Явления Облачность Т
(С)
Тd
(С)
f
(%)
Тe
(С)
Тes
(С)
Комфортность P
(гПа)
Po
(гПа)
Тmin
(С)
Tmax
(С)
R
(мм)
R24
(мм)
S
(см)
00 9.09 З 1 10 км ясно +6.1 +4.3 88 +5 +5 1031.0 1014.9
03 9.09 З 1 10 км 3/0
[Ci fib]
+5.1 +3.9 92 +4 +4 1031.5 1015.3 +4.2
06 9.09 штиль 0 10 км 3/0
[Ci fib]
+17.2 +8.1 55 +17 +24 1030.8 1015.3
09 9.09 СЗ 1 10 км 6/4 1500 м
[Cu med, cong Ci fib]
+22.2 +8.9 43 +24 +30 комфорт 1029.6 1014.4
12 9.09 С 1 10 км 8/6 1470 м
[Cb calv Ac trans Ci fib]
+22.8 +9.2 42 +24 +26 комфорт 1028.4 1013.3
15 9.09 штиль 0 10 км 6/4 1500 м
[Cb calv Ac trans]
+19.5 +11.4 59 +21 +21 комфорт 1028.1 1012.8 +23.9
18 9.09 штиль 0 10 км 8/3 1500 м
[Sc Ac trans]
+16.8 +10.3 65 +17 +17 1028.8 1013.4
21 9.09 СЗ 2 10 км 9/0
[Ac trans]
+12.8 +9.1 78 +12 +12 1029.1 1013.4
00 10.09 СЗ 1 10 км 8/3 1500 м
[Sc Ac trans]
+12.4 +9.3 81 +12 +12 1029.5 1013.8
03 10.09 штиль 0 10 км 8/3 1500 м
[Sc Ac trans]
+12.5 +9.9 84 +12 +12 1030.0 1014.3 +12.2
06 10.09 С 1 10 км 1/1 1500 м
[Sc]
+19.0 +12.8 67 +21 +27 комфорт 1030.0 1014.7
09 10.09 СВ 2 10 км 3/3 1500 м
[Cu Sc]
+21.2 +7.6 41 +22 +28 комфорт 1030.3 1015.0
12 10.09 В 2 10 км 6/3 1500 м
[Sc Ci fib]
+21.2 +7.5 41 +22 +25 комфорт 1030.0 1014.7
15 10.09 В 1 10 км 8/0
[Ci fib]
+19.0 +7.2 46 +21 +21 комфорт 1030.2 1014.8 +22.2
18 10.09 штиль 0 10 км 3/0
[Ci fib]
+12.5 +9.3 81 +12 +12 1031.4 1015.7
21 10.09 СЗ 1 10 км 3/0
[Ci fib]
+8.3 +6.3 87 +8 +8 1032.6 1016.6
00 11.09 СЗ 2 10 км ясно +6.1 +4.5 89 +4 +4 1033.7 1017.6
03 11.09 З 1 10 км 4/0
[Ci fib]
+5.1 +4.0 93 +4 +4 1034.5 1018.3 +4.7
06 11.09 В 1 10 км 4/0
[Ci fib]
+15.7 +10.0 69 +16 +22 1034.3 1018.8
09 11.09 В 2 10 км 3/0
[Ci fib]
+19.7 +5.9 40 +21 +29 комфорт 1034.0 1018.6
12 11.09 В 1 10 км 1/0
[Ci fib]
+21.1 +0.1 25 +21 +25 комфорт 1033.1 1017.8
15 11.09 ЮВ 1 10 км 1/0
[Ci fib]
+17.4 +7.3 51 +18 +18 1032.4 1016.9 +21.3
18 11.09 Ю 1 10 км ясно +11.2 +6.6 73 +11 +11 1032.9 1017.1
21 11.09 Ю 1 10 км ясно +8.0 +5.1 82 +7 +7 1033.0 1017.0
00 12.09 ЮЗ 1 10 км ясно +5.8 +3.5 85 +5 +5 1033.0 1016.8
03 12.09 Ю 2 10 км 3/0
[Ci fib]
+5.4 +3.6 88 +3 +3 1032.8 1016.6 +4.6
06 12.09 Ю 1 10 км 3/0
[Ci fib]
+17.8 +7.7 52 +19 +24 1031.8 1016.4
09 12.09 ЮЗ 2 10 км 3/0
[Ci fib]
+23.6 +5.8 32 +24 +32 комфорт 1030.2 1015.1
12 12.09 ЮВ 2 10 км ясно +23.7 +6.8 34 +24 +28 комфорт 1028.6 1013.5
15 12.09 ЮВ 1 10 км 3/0
[Ci fib]
+19.6 +8.0 47 +22 +22 комфорт 1027.9 1012.6 +25.0
18 12.09 Ю 1 10 км ясно +13.2 +7.7 69 +13 +13 1027.8 1012.2
21 12.09 Ю 1 10 км ясно +10.2 +6.6 78 +10 +10 1027.4 1011.6
00 13.09 Ю 1 10 км ясно +9.7 +5.5 75 +9 +9 1026.9 1011.1
03 13.09 Ю 2 10 км 3/0
[Ac trans]
+8.1 +5.2 82 +6 +6 1026.4 1010.5 +7.7
06 13.09 Ю 1 10 км 6/0
[Ac trans]
+19.6 +9.0 50 +22 +25 комфорт 1025.1 1009.8
09 13.09 З 5 10 км 4/3 1500 м
[Cu hum Ac trans]
+25.8 +6.7 30 +26 +28 жарко 1023.5 1008.6
12 13.09 З 3 10 км 6/6 1470 м
[Cu Sc]
+26.4 +5.4 26 +26 +27 жарко 1021.8 1007.0
15 13.09 ЮЗ 2 10 км 8/8 1320 м
[Cb calv]
+21.7 +6.2 37 +22 +22 комфорт 1020.7 1005.6 +26.6
18 13.09 Ю 1 10 км 3/0
[Ac trans]
+15.8 +7.2 57 +17 +17 1020.6 1005.2
21 13.09 Ю 1 10 км 1/0
[Ci fib]
+12.4 +6.3 66 +13 +13 1019.7 1004.1
00 14.09 Ю 1 10 км 3/0
[Ac trans]
+10.8 +5.0 67 +11 +11 1018.5 1002.8
03 14.09 Ю 2 10 км 3/0
[Ac trans]
+11.2 +4.7 64 +10 +10 1017.2 1001.6 +10.3
06 14.09 Ю 3 10 км 3/0
[Ci fib]
+19.7 +4.8 37 +20 +24 1015.4 1000.3
09 14.09 ЮЗ 4
{11}
10 км 4/0
[Ac trans]
+25.1 +2.6 23 +24 +28 комфорт 1013.0 998.2
12 14.09 ЮЗ 4
{11}
10 км 8/4 1500 м
[Cu hum Ac trans Ci fib]
+25.5 +3.2 24 +25 +26 комфорт 1011.4 996.6
15 14.09 ЮЗ 2
{10}
10 км 10/4 1500 м
[Cb calv Ac und]
+23.0 +3.3 28 +23 +23 комфорт 1010.9 996.0 +26.8
18 14.09 СЗ 4
{10}
10 км 9/6 1380 м
[Cb calv Ac trans]
+16.7 +10.7 68 +16 +16 1012.6 997.4
21 14.09 З 4
{10}
10 км слаб. ливневой дождь 10/8 1350 м
[Cb calv Ac und]
+13.0 +10.1 83 +11 +11 1013.7 998.3
00 15.09 штиль 0 10 км в посл. час ливневой дождь 10/8 1320 м
[Cb calv Ac und]
+11.1 +9.8 92 +10 +10 1013.0 997.5
03 15.09 ЮЗ 1 10 км в посл. час ливневой дождь 10/10 270 м
[Cb calv]
+10.8 +9.9 94 +10 +10 1012.8 997.3 +10.8 6
06 15.09 З 4 10 км {ливн. осадки} 4/1 1000 м
[Cu hum Ac trans]
+13.7 +10.2 79 +12 +14 1013.4 998.0
09 15.09 СЗ 5 10 км в посл. час ливневой дождь 6/4 1000 м
[Cb calv Ci fib]
+16.3 +4.6 46 +15 +18 1012.8 997.5
12 15.09 СЗ 6
{11}
10 км {ливн. осадки} 4/3 1500 м
[Cb calv Ci fib]
+16.7 +1.6 36 +16 +17 1012.3 997.1
15 15.09 З 4
{11}
10 км 8/4 1500 м
[Cb calv Ac trans]
+12.1 +3.9 57 +10 +10 1012.6 997.1 +17.0 0.0
18 15.09 З 3 10 км 6/3 1500 м
[Sc Ac trans]
+7.8 +3.9 76 +5 +5 1013.0 997.3
21 15.09 З 2 10 км 3/0
[Ac trans]
+5.9 +4.0 88 +3 +3 1012.2 996.4

 

Местоположение метеостанции Ульяновск (Ульяновская область, Россия): широта 54.27 долгота 48.23 высота над уровнем моря 129 м.

В архиве по умолчанию представлена погода в Ульяновске за последнюю неделю. Архивные данные за месяц целиком и за предыдущие месяцы, начиная с января 2011 года, Вы можете получить, выбрав интересующий диапазон дат из раскрывающегося списка и нажав кнопку "Ввод!".


*Определитесь, кто Вы:
робот инопланетянин человек

Внимание! Время в таблицах - всемирное. Для получения местного времени необходимо прибавить поправку, которая равна 4 ч.

Смотрите также архив погоды в соседних городах и на ближайших метеорологических станциях:

Погода в Сенгилее (Ульяновская область, Россия) (50 км)
Погода в Дрожжаном (Татарстан, Россия) (66 км)
Погода в Тетюшах (Татарстан, Россия) (84 км)
Погода в Новодевичьем (Самарская область, Россия) (84 км)
Погода в Димитровграде (Ульяновская область, Россия) (89 км)
Погода в Батырево (Чувашия, Россия) (98 км)
Погода в Сурском (Ульяновская область, Россия) (102 км)
Погода в Тольятти (Самарская область, Россия) (108 км)
Погода в Тольятти (дамба) (Самарская область, Россия) (121 км)
Погода в Сызрани (Самарская область, Россия) (122 км)

Пояснения к столбцам:

Ветер - указаны скорость ветра в м/с - средняя за 10 мин, порывы в срок и между сроками (в фигурных скобках) и направление, откуда дует ветер: С - северный, СВ - северо-восточный, В - восточный, ЮВ - юго-восточный, Ю - южный, ЮЗ - юго-западный, З - западный, СЗ - северо-западный.
Видимость - горизонтальная дальность видимости в метрах или километрах. При видимости от 1 до 10 км при отсутствии осадков обычно наблюдается дымка, при ухудшении видимости до 1 км и менее - туман. В сухую погоду видимость может ухудшаться дымом, пылью или мглою.
Явления - указаны атмосферные явления, наблюдавшиеся в срок или в последний час перед сроком; фигурными скобками обозначены явления, наблюдавшиеся между сроками (за 1-3 часа до срока); квадратными скобками обозначены град или гололедные отложения с указанием их диаметра в мм.
Облачность - указаны через наклонную черту общая и нижняя облачность в баллах и высота нижней границы облаков в метрах; квадратными скобками обозначены формы облаков: Ci - перистые, Cs - перисто-слоистые, Cc - перисто-кучевые, Ac - высококучевые, As - высокослоистые, Sc - слоисто-кучевые, Ns - слоисто-дождевые, Cu - кучевые, Cb - кучево-дождевые. Подробнее классификацию облаков см. в Атласе облаков (PDF).
T - Температура воздуха - температура, измеренная на высоте 2 м над землей.
Td - Температура точки росы - температура, при понижении до которой содержащийся в воздухе водяной пар достигнет насыщения.
f - Относительная влажность воздуха - влажноcть воздуха, измеренная на высоте 2 м над землей.
Te - Эффективная температура - температура, которую ощущает одетый по сезону человек в тени. Характеристика душности погоды. При расчете учитывается влияние влажности воздуха и скорости ветра на теплоощущения человека.
Tes - Эффективная температура на солнце - температура, которую ощущает человек, с поправкой на солнечный нагрев. Характеристика знойности погоды. Зависит от высоты солнца над горизонтом, облачности и скорости ветра. Ночью, в пасмурную погоду, а также при ветре 12 м/с и более поправка равна нулю.
P - Атмосферное давление - приведенное к уровню моря атмосферное давление.
Po - Атмосферное давление - измеренное на уровне метеостанции атмосферное давление.
Tmin - Минимальная температура - минимум температуры воздуха на высоте 2 м над землей.
Tmax - Максимальная температура - максимум температуры воздуха на высоте 2 м над землей.
R - Количество осадков - Количество выпавших осадков за период времени, мм. При наведении курсора мыши на число - период времени, за который выпало указанное количество осадков.
R24 - Количество осадков - Количество выпавших осадков за 24 часа, мм.
S - Снежный покров - Высота снежного покрова, см. При наведении курсора мыши на число - состояние снежного покрова и степень покрытия местности в баллах.